Volver al catálogo

STARLINK-37953

ActivoComunicacionesSSO
NORAD 69694·PAYLOAD·🇺🇸 United States

Lanzado Jun 25, 2026 desde Vandenberg Space Force Base

Loading…

Próximos Pases (próximas 24 horas)

TLE

ActualizadoSource: CelesTrak SupGP

Época: Sep 15, 2026, 04:29 UTC

1 69694C 26145T   26258.18729167 -.00051058  00000+0 -15848-2 0  2582
2 69694  97.2847 104.9582 0001875  90.0267 174.5646 15.33467018    19

Sigue STARLINK-37953 en tiempo real con AllMySat

Download on the App Store